Showing default

RISAT-2BR2, 46905

Orbit data source: Space-Track

RISAT-2BR2, 46905 is a payload satellite owned by ISRO (IN) in LEO that was launched on Sat, 07 Nov 2020 UTC via a PSLV-DL launch vehicle from the Sirharikota (SRI). Payloads include a variety of satellites, spacecraft, and rockets equipped with specific instruments for various scientific and technological missions. These include communications satellites like Starlink; space stations such as the ISS; scientific satellites like the Hubble; Earth observation satellites from companies like Planet Labs, Umbra, and HawkEye 360; GPS; miniature CubeSats for education and research; and military/defense satellites.

Loading next visibility...
RISAT-2BR2 details
Identifier
46905, 2020-081A
Orbit
LEO
Last TLE update11 hours ago
Origin
Flag of INISRO (IN / IND)
ManufacturerISRO
MissionOperational Civil Radar Imaging
Bus & MotorTECHSAR, Unknown motor
Mass628 kg wet, 628 kg dry
Launch date (UTC)
2020-11-07 (4 years ago)
Launch vehicle
PSLV-DL
Launch site
Sirharikota (SRI)
Object type
Payload
Rocket body
Debris
Shape & HBRHex Cyl + 2 Pan + 1 Dish, Unknown HBR
Radar Cross Section2.910 m², Large (>1 m²)

Expand to show TLE details & history

TLE from 11 hours ago
0 RISAT-2BR2
1 46905U 20081A   24360.98195557  .00007518  00000-0  59576-3 0  9995
2 46905  36.8970 178.2132 0012945  78.8254 281.3941 15.00128806226557
Epoch: 2024-12-25T23:34Z
Definitive object data (Epoch: 2024-12-25T23:34:00.961Z)
Latitude-0.00003°
Longitude89.74126°
Altitude563.851 km
Speed7.582 km/s
True Right ascension11h 52m 51s
True Declination0° 00' 00"
Sunlit
Object was in daylight at TLE epoch
Visualization TLE readout
Latitude-1.36847°
Longitude85.16954°
Altitude564.956 km
Speed7.581 km/s
Apparent Right ascension14h 05m 01s
Apparent Declination-54° 20' 37"
Sunlit
Object is in daylight
Visualization observer readout
Local Sidereal Time10:05:34
Azimuth148.135° SSE
Elevation-17.271°
Doppler factor1
Orbital elements
Apogee altitude578.41 km
Perigee altitude560.423 km
Semi-major axis6,947.554 km
Eccentricity0.0012945
Inclination36.897°
RAAN178.2132°
Arg. of periapsis78.8254°
True anomaly281.24864°
Mean anomaly281.3941°
Eccentric anomaly281.32137°
Mean motion3.74796 °/min
BSTAR0.00059576
Orbital period96.05 mins
Loading maneuver chart data...
Loading historical data...
Loading historical data...
Loading historical data...
Loading historical data...
Loading historical data...
Loading historical data...
Loading historical data...

RISAT-2BR2 Visibility forecast

Observer location: undefined°, undefined

Span
Click to sort rows by Start time (UTC) header in descending order
Start Az.
Max El. time (UTC)
Max El. Az.
Max El.
End time (UTC)
End Az.
6 mins2024-12-26 15:46:20.579Z208.949° SW2024-12-26 15:49:20.579Z153.148° SSE23.876°2024-12-26 15:52:20.579Z103.227° ESE
6 mins2024-12-26 17:27:20.579Z243.706° WSW2024-12-26 17:30:20.579Z156.94° SSE38.081°2024-12-26 17:33:20.579Z99.744° ESE
6 mins2024-12-26 19:08:20.579Z258.118° W2024-12-26 19:11:20.579Z178.484° S36.868°2024-12-26 19:14:20.579Z118.309° SE
4 mins2024-12-26 20:50:20.579Z236.581° WSW2024-12-26 20:52:20.579Z196.7° SSW20.528°2024-12-26 20:54:20.579Z162.547° S
|